This demonstration page uses our WeatherBlox Daily Observations layout. Learn more.

Left ArrowRight Arrow

Hourly Observations for December 27, 2018

Temp ( °F °C ) Dew Point ( °F °C ) Humidity (%) Winds ( mph kmh ) Pressure ( in mb ) Visibility ( mi km ) Precip ( " mm )
12:15 am 00:15 Clear 30 -1 30 -1 100 100 SW 5 7 30.53 1034 10 16 N/A
12:35 am 00:35 Clear 30 -1 30 -1 100 100 SW 3 6 30.53 1034 10 16 N/A
12:55 am 00:55 Clear 30 -1 30 -1 100 100 N N/A 30.53 1034 10 16 N/A
1:15 am 01:15 Clear 30 -1 28 -2 93 93 WSW 5 7 30.53 1034 10 16 N/A
1:35 am 01:35 Clear 28 -2 28 -2 100 100 W 5 7 30.53 1034 10 16 N/A
1:55 am 01:55 Clear 30 -1 30 -1 100 100 N N/A 30.53 1034 10 16 N/A
2:15 am 02:15 Clear 30 -1 30 -1 100 100 ESE 5 7 30.56 1035 10 16 N/A
2:35 am 02:35 Clear 30 -1 30 -1 100 100 N N/A 30.56 1035 10 16 N/A
2:55 am 02:55 Clear 28 -2 28 -2 100 100 N N/A 30.56 1035 10 16 N/A
3:15 am 03:15 Clear 28 -2 28 -2 100 100 N N/A 30.56 1035 10 16 N/A
3:35 am 03:35 Clear 28 -2 28 -2 100 100 N N/A 30.56 1035 10 16 N/A
3:55 am 03:55 Clear 28 -2 28 -2 100 100 N N/A 30.53 1034 10 16 N/A
4:15 am 04:15 Clear 28 -2 28 -2 100 100 N N/A 30.53 1034 10 16 N/A
4:35 am 04:35 Clear 28 -2 28 -2 100 100 N N/A 30.53 1034 10 16 N/A
4:55 am 04:55 Clear 28 -2 28 -2 100 100 N N/A 30.53 1034 10 16 N/A
5:15 am 05:15 Clear 27 -3 27 -3 100 100 N N/A 30.56 1035 10 16 N/A
5:35 am 05:35 Clear 28 -2 28 -2 100 100 N N/A 30.56 1035 10 16 N/A
5:55 am 05:55 Clear 27 -3 27 -3 100 100 N N/A 30.56 1035 10 16 N/A
6:15 am 06:15 Clear 27 -3 27 -3 100 100 N N/A 30.56 1035 10 16 N/A
6:35 am 06:35 Clear 28 -2 28 -2 100 100 N N/A 30.56 1035 10 16 N/A
6:55 am 06:55 Clear 28 -2 28 -2 100 100 N N/A 30.56 1035 10 16 N/A
7:15 am 07:15 Clear 27 -3 27 -3 100 100 N N/A 30.56 1035 10 16 N/A
7:35 am 07:35 Sunny 27 -3 27 -3 100 100 N N/A 30.59 1036 10 16 N/A
7:55 am 07:55 Sunny 28 -2 28 -2 100 100 N N/A 30.59 1036 10 16 N/A
8:15 am 08:15 Sunny 28 -2 28 -2 100 100 N N/A 30.59 1036 10 16 N/A
8:35 am 08:35 Sunny 30 -1 30 -1 100 100 N N/A 30.59 1036 7 11 N/A
8:55 am 08:55 Sunny 32 undefined 32 undefined 100 100 N N/A 30.59 1036 7 11 N/A
9:15 am 09:15 Sunny 32 undefined 32 undefined 100 100 N N/A 30.59 1036 7 11 N/A
9:35 am 09:35 Sunny 34 1 32 undefined 93 93 N N/A 30.59 1036 10 16 N/A
9:55 am 09:55 Sunny 36 2 32 undefined 87 87 N N/A 30.59 1036 10 16 N/A
10:15 am 10:15 Sunny 37 3 32 undefined 81 81 N N/A 30.59 1036 10 16 N/A
10:35 am 10:35 Sunny 41 5 34 1 76 76 S 5 7 30.59 1036 10 16 N/A
10:55 am 10:55 Sunny 43 6 32 undefined 66 66 S 6 9 30.56 1035 10 16 N/A
11:15 am 11:15 Sunny 43 6 32 undefined 66 66 S 6 9 30.56 1035 10 16 N/A
11:35 am 11:35 Sunny 45 7 32 undefined 61 61 S 9 15 30.53 1034 10 16 N/A
11:55 am 11:55 Sunny 46 8 32 undefined 57 57 SSE 9 15 30.53 1034 10 16 N/A
12:15 pm 12:15 Sunny 46 8 32 undefined 57 57 S 10 17 30.53 1034 10 16 N/A
12:35 pm 12:35 Sunny 48 9 32 undefined 54 54 SSE 10 17 30.53 1034 10 16 N/A
12:55 pm 12:55 Sunny 50 10 32 undefined 50 50 SSE 12 19 30.53 1034 10 16 N/A
1:15 pm 13:15 Sunny 50 10 32 undefined 50 50 S 10 17 30.53 1034 10 16 N/A
1:35 pm 13:35 Sunny 50 10 32 undefined 50 50 SSE 9 15 30.53 1034 10 16 N/A
1:55 pm 13:55 Sunny 50 10 32 undefined 50 50 SSE 13 20 30.50 1033 10 16 N/A
2:15 pm 14:15 Sunny 50 10 32 undefined 50 50 SSE 9 15 30.53 1034 10 16 N/A
2:35 pm 14:35 Sunny 50 10 32 undefined 50 50 S 14 22 30.53 1034 10 16 N/A
2:55 pm 14:55 Sunny 52 11 32 undefined 47 47 S 14 22 30.50 1033 10 16 N/A
3:15 pm 15:15 Partly Cloudy 50 10 32 undefined 50 50 S 10 17 30.50 1033 10 16 N/A
3:35 pm 15:35 Mostly Cloudy 50 10 32 undefined 50 50 SSE 8 13 30.50 1033 10 16 N/A
3:55 pm 15:55 Cloudy 50 10 32 undefined 50 50 SSE 12 19 30.48 1032 10 16 N/A
4:15 pm 16:15 Cloudy 50 10 32 undefined 50 50 SSE 10 17 30.48 1032 10 16 N/A
4:35 pm 16:35 Cloudy 48 9 32 undefined 54 54 SSE 9 15 30.48 1032 10 16 N/A
4:55 pm 16:55 Cloudy 48 9 32 undefined 54 54 SSE 9 15 30.48 1032 10 16 N/A
5:15 pm 17:15 Cloudy 48 9 32 undefined 54 54 SSE 6 9 30.48 1032 10 16 N/A
5:35 pm 17:35 Cloudy 48 9 34 1 58 58 SSE 7 11 30.48 1032 10 16 N/A
5:55 pm 17:55 Cloudy 48 9 34 1 58 58 SSE 9 15 30.48 1032 10 16 N/A
6:15 pm 18:15 Cloudy 46 8 34 1 62 62 SSE 7 11 30.48 1032 10 16 N/A
6:35 pm 18:35 Cloudy 46 8 34 1 62 62 SSE 8 13 30.48 1032 10 16 N/A
6:55 pm 18:55 Cloudy 46 8 34 1 62 62 SSE 8 13 30.48 1032 10 16 N/A
7:15 pm 19:15 Cloudy 46 8 34 1 62 62 SSE 9 15 30.48 1032 10 16 N/A
7:35 pm 19:35 Cloudy 46 8 34 1 62 62 SE 3 6 30.48 1032 10 16 N/A
7:55 pm 19:55 Cloudy 46 8 36 2 66 66 SSE 9 15 30.48 1032 10 16 N/A
8:15 pm 20:15 Cloudy 46 8 36 2 66 66 SSE 8 13 30.45 1031 10 16 N/A
8:35 pm 20:35 Cloudy 46 8 36 2 66 66 SSE 9 15 30.45 1031 10 16 N/A
8:55 pm 20:55 Cloudy 46 8 37 3 71 71 SSE 15 24 30.45 1031 10 16 N/A
9:15 pm 21:15 Cloudy 45 7 41 5 87 87 SSE 15 24 30.45 1031 10 16 N/A
9:35 pm 21:35 Cloudy 45 7 41 5 87 87 SSE 10 17 30.42 1030 7 11 N/A
9:55 pm 21:55 Cloudy with Mist and Fog 45 7 41 5 87 87 SSE 10 17 30.42 1030 5 8 N/A
10:15 pm 22:15 Cloudy with Light Rain 43 6 43 6 100 100 S 5 7 30.42 1030 4 6 N/A
10:35 pm 22:35 Cloudy with Light Rain 43 6 43 6 100 100 SSE 3 6 30.42 1030 5 8 N/A
10:55 pm 22:55 Cloudy with Mist and Fog 43 6 43 6 100 100 SSW 5 7 30.42 1030 5 8 N/A
11:15 pm 23:15 Cloudy 41 5 41 5 100 100 SE 3 6 30.36 1028 7 11 N/A
11:35 pm 23:35 Cloudy with Mist and Fog 41 5 41 5 100 100 N N/A 30.36 1028 3 5 N/A
11:55 pm 23:55 Cloudy with Mist and Fog 41 5 41 5 100 100 SSW 3 6 30.36 1028 3 4 N/A

Powered by AerisWeather